Flag for Spain Weather past 2 weeks in Alicante, Spain

Now
81 °F

Passing clouds.


Feels Like: 84 °F
Forecast: 70 / 87 °F
Wind: 7 mph from East

Location: Alicante / El Altet

Current Time: Aug 21, 2014 at 8:52:54 PM

Latest Report: Aug 21, 2014 at 8:00 PM


Visibility: N/A

Pressure: 29.92 "Hg

Humidity: 70%

Dew point: 70 °F

Location of AlicanteLocation

Historic Weather in Alicante — Graph

°F

Alicante temperature yesterday

Maximum temperature yesterday: 86 °F (at 12:30 PM)
Minimum temperature yesterday: 72 °F (at 6:30 AM)
Average temperature yesterday: 80 °F

Past Weeks' High & Low Weather Summary

 TemperatureHumidityPressure
High99 °F (Aug 13, 1:30 PM)94% (Aug 10, 5:30 AM)30.12 "Hg (Aug 10, 5:30 AM)
Low70 °F (Aug 9, 6:30 AM)24% (Aug 13, 1:30 PM)29.80 "Hg (Aug 9, 8:00 PM)
Average80 °F71%29.95 "Hg
* Reported Aug 6 7:00 PM — Aug 21 7:30 PM, Alicante, Weather by CustomWeather, © 2014

Note: Actual official high and low records may vary slightly from our data, if they occured in-between our weather recording intervals... More about our weather records

Advertising

Alicante weather history for previous 24 hours

 ConditionsComfort  
Time TempWeatherWind HumidityBarometerVisibility
7:30 PM
Aug 21
81 °FScattered clouds.7 mph70%29.92 "HgN/A
7:00 PM81 °FPassing clouds.8 mph70%29.92 "HgN/A
6:30 PM82 °FPassing clouds.9 mph66%29.95 "HgN/A
6:00 PM82 °FPassing clouds.7 mph66%29.95 "HgN/A
5:30 PM82 °FPassing clouds.9 mph66%29.95 "HgN/A
5:00 PM84 °FPassing clouds.9 mph62%29.95 "HgN/A
4:30 PM84 °FPassing clouds.10 mph62%29.95 "HgN/A
4:00 PM84 °FPassing clouds.10 mph62%29.95 "HgN/A
3:30 PM84 °FPassing clouds.12 mph62%29.98 "HgN/A
3:00 PM84 °FPassing clouds.10 mph58%29.98 "HgN/A
2:30 PM84 °FPassing clouds.10 mph62%29.98 "HgN/A
2:00 PM86 °FPassing clouds.10 mph55%30.01 "HgN/A
1:30 PM84 °FPassing clouds.10 mph62%30.01 "HgN/A
1:00 PM84 °FPassing clouds.9 mph62%30.01 "HgN/A
12:30 PM82 °FPassing clouds.9 mph66%30.01 "HgN/A
12:00 PM82 °FScattered clouds.10 mph66%30.01 "HgN/A
11:30 AM82 °FPartly sunny.9 mph70%30.01 "HgN/A
11:00 AM82 °FPartly sunny.6 mph70%30.01 "HgN/A
10:30 AM82 °FPartly sunny.5 mph66%30.01 "HgN/A
10:00 AM81 °FPartly sunny.3 mph70%29.98 "HgN/A
9:30 AM81 °FPassing clouds.3 mph70%29.98 "HgN/A
9:00 AM79 °FPassing clouds.6 mph74%29.98 "HgN/A
8:30 AM77 °FPassing clouds.3 mph79%29.98 "HgN/A
8:00 AM77 °FPassing clouds.3 mph74%29.98 "HgN/A
7:30 AM77 °FPassing clouds.3 mph79%29.98 "HgN/A
7:00 AM75 °FPassing clouds.5 mph83%29.95 "HgN/A
6:30 AM75 °FPassing clouds.5 mph78%29.95 "HgN/A
6:00 AM75 °FPassing clouds.3 mph78%29.95 "HgN/A
5:30 AM77 °FPassing clouds.5 mph74%29.95 "HgN/A
4:30 AM73 °FPassing clouds.2 mph83%29.95 "HgN/A
4:00 AM73 °FPassing clouds.No wind89%29.95 "HgN/A
3:30 AM75 °FClear.No wind83%29.95 "Hg10 mi
3:00 AM73 °FClear.1 mph83%29.95 "Hg10 mi
2:30 AM73 °FClear.No wind83%29.95 "Hg10 mi
2:00 AM75 °FClear.No wind78%29.95 "Hg10 mi
1:30 AM77 °FClear.No wind79%29.95 "Hg10 mi
1:00 AM77 °FClear.3 mph83%29.95 "Hg10 mi
12:30 AM79 °FClear.2 mph79%29.98 "Hg10 mi
12:00 AM79 °FClear.1 mph79%29.98 "Hg10 mi
11:30 PM
Aug 20
79 °FClear.1 mph79%29.98 "Hg10 mi
11:00 PM79 °FClear.1 mph79%29.95 "Hg10 mi
10:30 PM79 °FPassing clouds.3 mph79%29.95 "HgN/A
10:00 PM79 °FPassing clouds.5 mph79%29.95 "HgN/A
9:30 PM79 °FPassing clouds.3 mph79%29.95 "HgN/A
9:00 PM79 °FPassing clouds.5 mph79%29.92 "HgN/A
8:30 PM81 °FPassing clouds.6 mph74%29.92 "HgN/A
8:00 PM81 °FPassing clouds.8 mph74%29.92 "HgN/A
Weather by CustomWeather, © 2014

See weather overviewHow to use our weather pages